This is the latest recevied weather packets stored in our database for station/object W0VI. If no packets are shown the sender has not sent any weather packets the latest 1 day(s).
| Time | Temp. | Humidity | Pressure | Rain* | Wind** | Luminosity | Snow |
|---|---|---|---|---|---|---|---|
| 1778086076 | 4.44° C | 55% | 1017.3 hPa | 0 mm | - | 276 W/m² | - |
| 1778085773 | 5° C | 55% | 1017 hPa | 0 mm | - | 189 W/m² | - |
| 1778084861 | 5° C | 54% | 1017 hPa | 0 mm | - | 229 W/m² | - |
| 1778084559 | 5° C | 54% | 1017.1 hPa | 0 mm | - | 271 W/m² | - |
| 1778084256 | 4.44° C | 55% | 1017.1 hPa | 0 mm | - | 379 W/m² | - |
| 1778083347 | 4.44° C | 55% | 1017.1 hPa | 0 mm | - | 287 W/m² | - |
| 1778082742 | 4.44° C | 55% | 1017.2 hPa | 0 mm | - | 240 W/m² | - |
| 1778078580 | 3.89° C | 56% | 1017.1 hPa | 0 mm | - | 124 W/m² | - |
| 1778078278 | 3.89° C | 56% | 1016.9 hPa | 0 mm | - | 171 W/m² | - |
| 1778077371 | 4.44° C | 55% | 1016.8 hPa | 0 mm | - | 173 W/m² | - |
| 1778076767 | 3.89° C | 56% | 1017 hPa | 0 mm | - | 234 W/m² | - |
| 1778075858 | 3.89° C | 57% | 1016.9 hPa | 0 mm | - | 196 W/m² | - |
| 1778075554 | 3.89° C | 58% | 1016.8 hPa | 0 mm | - | 199 W/m² | - |
| 1778074645 | 3.33° C | 58% | 1016.7 hPa | 0 mm | - | 186 W/m² | - |
| 1778072826 | 3.33° C | 60% | 1016.6 hPa | 0 mm | - | 260 W/m² | - |
| 1778069196 | 1.11° C | 71% | 1015.9 hPa | 0 mm | - | 48 W/m² | - |
| 1778068893 | 1.11° C | 72% | 1015.6 hPa | 0 mm | - | 43 W/m² | - |
| 1778067986 | 0° C | 75% | 1015.5 hPa | 0 mm | - | 27 W/m² | - |
| 1778066775 | 0° C | 76% | 1015.3 hPa | 0 mm | - | 18 W/m² | - |
| 1778065263 | -0.56° C | 76% | 1015.7 hPa | 0 mm | - | 3 W/m² | - |
| 1778064656 | -0.56° C | 76% | 1015.6 hPa | 0 mm | - | 0 W/m² | - |
| 1778063445 | -0.56° C | 75% | 1015.1 hPa | 0 mm | - | 0 W/m² | - |
| 1778063144 | -0.56° C | 75% | 1015 hPa | 0 mm | - | 0 W/m² | - |
| 1778062841 | -0.56° C | 75% | 1014.9 hPa | 0 mm | - | 0 W/m² | - |
| 1778062537 | -0.56° C | 75% | 1014.9 hPa | 0 mm | - | 0 W/m² | - |
* Rain latest hour (hover to see other rain measurements)
** Current wind speed in m/s (hover to see current wind gust speed)